Regional Weather Roundup
Issued by NWS Upton, NY

Current Version | Previous Version | Graphics & Text | Print | Product List | Glossary Off
Versions: 1 2 3 4 5 6 7 8 9 10 11 12 13 14 15 16 17 18 19 20 21 22 23 24 25 26 27 28 29 30 31 32 33 34 35 36 37 38 39 40 41 42 43 44 45 46 47 48 49 50

000
ASUS41 KOKX 011504
RWROKX

REGIONAL WEATHER ROUNDUP
NATIONAL WEATHER SERVICE NEW YORK NY
1100 AM EDT SAT AUG 01 2015

NOTE: "FAIR" INDICATES FEW OR NO CLOUDS BELOW 12,000 FEET WITH NO
SIGNIFICANT WEATHER AND/OR OBSTRUCTIONS TO VISIBILITY.

NYZ071-072-176-178-NJZ106-104-011600-
NEW YORK CITY METRO AREA


CITY           SKY/WX    TMP DP  RH WIND       PRES   REMARKS
CENTRAL PARK   PTSUNNY   81  62  52 VRB7      29.83S
LAGUARDIA APRT CLOUDY    83  59  44 W12       29.80R
KENNEDY INTL   PTSUNNY   84  64  50 SW14      29.81S
NEWARK/LIBERTY PTSUNNY   82  61  48 W12G20    29.80F
BRNX BOT. GARD   N/A     82  61  47 N3        29.81S
TETERBORO      PTSUNNY   82  61  48 SW7       29.79S
$$

NYZ177-179-078>081-011600-
LONG ISLAND NEW YORK

CITY           SKY/WX    TMP DP  RH WIND       PRES   REMARKS
FARMINGDALE    MOSUNNY   86  60  41 W14       29.80S
ISLIP          PTSUNNY   85  67  54 S9        29.77F
SHIRLEY        SUNNY     85  69  58 S9        29.79S
WESTHAMPTON    SUNNY     84  67  56 SW13      29.80F
MONTAUK POINT    N/A     84  65  52 W6        29.80S
$$

NYZ052-065-067-011600-
HUDSON VALLEY

CITY           SKY/WX    TMP DP  RH WIND       PRES   REMARKS
WHITE PLAINS   MOSUNNY   80  62  54 W6        29.81S
NEWBURGH       SUNNY     81  64  57 W12       29.81F
MONTGOMERY     SUNNY     83  63  50 NW8       29.80S
POUGHKEEPSIE   SUNNY     83  60  45 VRB6      29.78S
ALBANY         PTSUNNY   80  61  52 SW10      29.79R
$$

NJZ001-105-106-008-010-013-015-019>022-104-011600-
NEW JERSEY

CITY           SKY/WX    TMP DP  RH WIND       PRES   REMARKS
NEWARK/LIBERTY PTSUNNY   82  61  48 W12G20    29.80F
TETERBORO      PTSUNNY   82  61  48 SW7       29.79S
CALDWELL       MOSUNNY   81  62  52 SW8       29.81S
MORRISTOWN     PTSUNNY   84  63  48 W13       29.81F
SOMERVILLE     MOSUNNY   80  62  54 VRB3      29.81S
SUSSEX         SUNNY     80  65  59 S5        29.81F
ANDOVER          N/A     78  64  61 SW7       29.83S
TRENTON        PTSUNNY   81  62  52 W10       29.84S
MILLVILLE      SUNNY     85  64  49 W12       29.86S
ATLANTIC CITY  SUNNY     86  64  47 W13       29.85S
WRIGHTSTOWN    NOT AVBL
TOMS RIVER       N/A     86  63  45 W12       29.84S
BELMAR         MOSUNNY   82  64  54 W8        29.83S
$$

PAZ047>061-062-071-011600-
EASTERN PENNSYLVANIA

CITY           SKY/WX    TMP DP  RH WIND       PRES   REMARKS
PHILADELPHIA   PTSUNNY   83  61  47 W13       29.85S
ALLENTOWN      SUNNY     81  62  52 W9        29.84S
SCRANTON       SUNNY     78  62  57 VRB5      29.85S
$$

CTZ002-004>006-009-010-012-RIZ004-006-007-MAZ004-011-015-011600-
SOUTHERN NEW ENGLAND
 IN CT

CITY           SKY/WX    TMP DP  RH WIND       PRES   REMARKS
BRADLEY INTL   MOSUNNY   82  62  50 VRB3      29.76S
HARTFORD       MOSUNNY   84  63  49 W6        29.76S
DANBURY        PTSUNNY   80  61  52 W10       29.81S
WTRBRY/OXFORD  MOSUNNY   79  64  61 NW6       29.83S
BRIDGEPORT     MOSUNNY   82  66  58 SW13      29.78S
MERIDEN        MOSUNNY   85  62  46 VRB5      29.77S
NEW HAVEN      MOSUNNY   80  66  62 SW9       29.78S
CHESTER        FAIR      81  64  57 SW7       29.80S
GROTON         MOSUNNY   79  67  66 SW10      29.77F
WILLIMANTIC    SUNNY     84  61  45 W5        29.77F

 IN RI

CITY           SKY/WX    TMP DP  RH WIND       PRES   REMARKS
PROVIDENCE     MOSUNNY   86  63  45 W13       29.77S
BLOCK ISLAND     N/A     81  68  65 W9        29.81R
WESTERLY       SUNNY     81  66  60 SW8       29.78F

 IN MA

CITY           SKY/WX    TMP DP  RH WIND       PRES   REMARKS
BOSTON         PTSUNNY   84  58  40 W10G18    29.75S
WORCESTER      MOSUNNY   77  60  55 W8        29.79F
WESTFIELD      PTSUNNY   78  62  57 W7        29.77S
PROVINCETOWN   SUNNY     82  64  54 SW13      29.76F
NANTUCKET      SUNNY     77  70  79 S16       29.80S
$$

ANZ330-335-338-340-345-350-353-355-011600-
COASTAL MARINE OBSERVATIONS


STATION/POSITION TIME  SKY/WX   TEMP    WIND        PRES    VSBY  WAVE
                                AIR SEA DIR/SP/G                  HT/PER
                 (UTC)          (F)     (DEG/KT/KT) (MB)    (MI)  (FT/S)
NY HARB ENTRANCE 1350            76 76  240/ 12/ 14 1009.0          3/10
4S FIRE IS       NOT AVBL
20S FIRE ISLAND  1350            76 75  250/ 10/ 12 1009.2          4/11
GREAT SOUTH BAY  1430            76 80  260/ 14/ 16   N/A
23SW MTP         1450            75 74  240/ 12/ 14 1008.6          4/10
HUDSON CANYON    NOT AVBL
KINGS POINT      1400            79 69  290/  8/ 10 1008.4
EXECUTION ROCKS  1400            77     260/  4/  6   N/A
CENTRAL LI SOUND NOT AVBL
EASTERN LI SOUND 1400            75 69  260/  8/ 10   N/A
ROBBINS REEF     1400            80     270/ 14/ 17 1008.2
$$


>>>>>>>>>>>>>>>>>>>>>>>>>>>> KEY <<<<<<<<<<<<<<<<<<<<<<<<<<<
>                                                          <
>     SKY/WX - SKY CONDITION/PRESENT WEATHER               <
>     TMP    - TEMPERATURE IN FAHRENHEIT                   <
>     DP     - DEWPOINT IN FAHRENHEIT                      <
>     RH     - RELATIVE HUMIDITY IN PERCENT                <
>     WIND   - DIRECTION AND SPEED IN MPH                  <
>     PRES   - MEAN SEA LEVEL PRESSURE IN INCHES OF HG     <
>     WCI    - WIND CHILL INDEX                            <
>     VSB    - VISIBILITY IN MILES                         <
>     HX     - HEAT INDEX                                  <
>     TC     - TEMPERATURE IN CELSIUS                      <
>     VRB    - VARIABLE WIND DIRECTION                     <
>                                                          <
>>>>>>>>>>>>>>>>>>>>>>>>>>>> KEY <<<<<<<<<<<<<<<<<<<<<<<<<<<





USA.gov is the U.S. government's official web portal to all federal, state and local government web resources and services.